TIME,DELAY(SENSOR),PRES,OXYGEN,RAWTEMP,T(OPTODE),TCPHASE,FLUOR,BETA(BETA700),BETA(BETA412),BETA(BETA440),CDOM,C(CSC),ED(ED412.40),ED(ED444.00),ED(ED489.70),ED(ED554.30),LU(LU411.80),LU(LU443.40),LU(LU489.60),LU(LU554.10),COMP,TILTX,TILTY,CHECK
1349667000,5807,840.9799804687500000,43.2813606262207000,660.7194824218750000,4.6042799949646000,54.5141983032226560,53,100,86,78,81,15206,2147759350,2147420644,2148008493,2147873545,2147638729,2147060717,2148263524,2147197659,3149,5,13,31763
1349670596,5807,899.9899902343750000,46.5836906433105500,668.2532958984375000,4.3558812141418460,54.1307716369628900,53,101,86,78,81,15209,2147755300,2147420470,2148008036,2147875072,2147645412,2147063826,2148266048,2147197129,1548,5,13,48236
1349674196,5808,910.2199707031250000,46.7205886840820300,669.2788696289062000,4.3220138549804690,54.1190299987793000,53,98,88,79,81,15208,2147759296,2147421513,2148006518,2147874148,2147646747,2147064676,2148262912,2147197211,2975,5,13,34088
1349677796,5810,947.7100219726562000,46.9870986938476560,670.0903930664062000,4.2952117919921875,54.0936698913574200,52,100,88,78,82,15206,2147758866,2147422345,2148008795,2147873874,2147643428,2147059721,2148261458,2147198372,1613,5,13,14925
1349681396,5809,956.1199951171875000,46.7114410400390600,669.8950195312500000,4.3016657829284670,54.1315002441406250,52,99,86,80,81,15207,2147758683,2147421814,2148003547,2147875264,2147646070,2147058624,2148263378,2147195492,3232,4,13,33458
1349684996,5811,948.5300292968750000,46.3197593688964840,669.5924072265625000,4.3116607666015625,54.1820297241210940,52,99,84,79,82,15204,2147757348,2147420726,2148006208,2147875090,2147643748,2147060388,2148269092,2147196196,373,5,13,50336
1349688596,5809,982.4799804687500000,47.5968513488769500,672.5736083984375000,4.2131438255310060,54.0344200134277340,52,99,87,79,82,15207,2147762733,2147422381,2148008868,2147874477,2147644662,2147062573,2148263451,2147197229,508,5,13,41841
1349692196,5810,978.2000122070312000,47.6643791198730500,672.7457885742188000,4.2074508666992190,54.0332107543945300,53,98,87,80,82,15187,2147758235,2147423122,2148007497,2147874605,2147642569,2147059154,2148264018,2147195373,1120,5,13,62432
1349695796,5809,984.4600219726562000,47.6099510192871100,671.9008789062500000,4.2353839874267580,54.0261383056640600,52,100,89,78,81,15181,2147760082,2147423277,2148009307,2147874459,2147642578,2147064521,2148263561,2147195492,72,5,13,53890
1349699396,5808,980.2800292968750000,47.6817893981933600,672.5675048828125000,4.2133460044860840,54.0269889831543000,52,99,90,79,81,15184,2147759250,2147418605,2148010130,2147873398,2147645458,2147062619,2148265819,2147197805,204,5,13,35231
1349702996,5810,971.9299926757812000,48.1684112548828100,674.6517944335938000,4.1444067955017090,53.9872207641601560,52,101,88,79,83,15185,2147760539,2147418267,2148008960,2147874011,2147645302,2147064054,2148258852,2147196443,346,5,13,25544
1349706596,5808,977.8499755859375000,49.3790893554687500,675.8950805664062000,4.1032619476318360,53.8332099914550800,53,98,87,80,81,15148,2147758052,2147420754,2148007853,2147874715,2147645193,2147061174,2148265709,2147198866,3482,5,13,4445
1349710196,5810,982.4299926757812000,48.7678489685058600,675.4467163085938000,4.1181049346923830,53.9048995971679700,52,99,81,79,82,15151,2147760000,2147423616,2148010614,2147875648,2147644288,2147062089,2148263945,2147196233,7,5,13,3369
1349713796,5809,986.0700073242188000,48.1673583984375000,674.2515258789062000,4.1576519012451170,53.9753608703613300,53,101,85,78,82,15151,2147760374,2147421924,2148008777,2147875328,2147644882,2147064173,2148263707,2147196571,217,5,13,48047
1349717396,5810,979.8800048828125000,48.2866210937500000,675.0225219726562000,4.1321430206298830,53.9732398986816400,53,98,86,79,80,15151,2147759789,2147420854,2148010185,2147874843,2147644443,2147058633,2148263542,2147197961,37,5,13,45321
1349720996,5811,988.1699829101562000,49.0334281921386700,675.2246704101562000,4.1254520416259770,53.8714790344238300,52,98,85,80,82,15147,2147758290,2147420790,2148009508,2147874413,2147643273,2147059008,2148258477,2147195136,508,5,13,42775
1349724596,5807,996.6500244140625000,48.3160209655761700,673.7559814453125000,4.1740422248840330,53.9500312805175800,53,100,87,78,82,15147,2147761270,2147423360,2148011291,2147877174,2147645284,2147066486,2148260077,2147195986,3251,5,13,45035
1349728196,5807,990.7299804687500000,48.1098785400390600,673.9180908203125000,4.1686801910400390,53.9788398742675800,53,99,85,78,80,15144,2147760585,2147420224,2148009938,2147871954,2147643675,2147064109,2148261531,2147199789,232,5,13,49935
1349731796,5811,997.1900024414062000,48.2170295715332000,673.7282104492188000,4.1749610900878910,53.9651794433593750,53,100,85,78,81,15146,2147759277,2147421650,2148010770,2147876635,2147644032,2147063396,2148264411,2147198902,40,5,13,16259
1349735396,5805,995.2000122070312000,47.5373611450195300,673.0245971679688000,4.1982312202453610,54.0518302917480500,52,98,86,79,80,15144,2147761417,2147423232,2148011821,2147880749,2147644050,2147062582,2148258797,2147195931,102,5,13,5412
1349738996,5810,990.1400146484375000,47.4340095520019500,673.8668212890625000,4.1703801155090330,54.0756797790527340,52,103,88,79,81,15146,2147758336,2147424704,2148011510,2147873243,2147645403,2147066404,2148261869,2147196269,104,5,13,29137
1349742596,5808,991.5599975585938000,48.6610412597656250,674.4603881835938000,4.1507420539855960,53.9130783081054700,53,100,85,78,83,15145,2147759122,2147421796,2148007853,2147873718,2147644790,2147061120,2148267044,2147196772,3363,5,13,64926
1349746196,5810,985.3800048828125000,47.9588203430175800,674.6409301757812000,4.1447701454162600,54.0114517211914060,53,99,89,78,81,15145,2147759250,2147421046,2148010432,2147873993,2147642496,2147066020,2148262198,2147198646,62,5,13,10017
1349749796,5809,988.3400268554688000,48.4650001525878900,675.0798950195312000,4.1302428245544430,53.9486389160156250,52,101,87,79,82,15148,2147759753,2147419227,2148012059,2147876297,2147645293,2147059446,2148265490,2147197714,3338,4,13,56458
1349753396,5808,984.1799926757812000,49.2948608398437500,677.0714721679688000,4.0643138885498050,53.8584213256835940,52,98,88,78,81,15144,2147759195,2147422034,2148006811,2147873499,2147643721,2147063542,2148261293,2147197613,3436,5,13,49933
1349756996,5807,990.7100219726562000,50.2091102600097660,676.8798217773438000,4.0706629753112790,53.7318611145019500,53,98,87,78,81,15144,2147758985,2147423085,2148005302,2147875894,2147647067,2147057819,2148262326,2147198372,3156,4,13,50774
1349760596,5807,986.3400268554688000,49.5439987182617200,677.1287841796875000,4.0624179840087890,53.8219299316406250,52,99,85,79,82,15143,2147762477,2147421403,2148005622,2147874834,2147644772,2147061595,2148265088,2147198802,3533,5,13,19864
1349764196,5810,995.0000000000000000,48.9262886047363300,675.1229858398438000,4.1288170814514160,53.8860893249511700,53,100,87,81,82,15132,2147760210,2147422290,2148008557,2147872713,2147644361,2147065353,2148262628,2147197056,3224,5,13,9907
1349767796,5809,992.8099975585938000,48.7664794921875000,674.9818115234375000,4.1334881782531740,53.9007110595703100,52,97,85,79,82,15134,2147759643,2147420214,2148011693,2147875520,2147641060,2147060790,2148263561,2147198473,159,5,13,22784
1349771396,5807,997.3599853515625000,48.1797409057617200,674.1799926757812000,4.1600170135498050,53.9752998352050800,53,99,86,79,83,15135,2147761728,2147424338,2148011273,2147875026,2147641554,2147061577,2148263414,2147197924,3543,5,13,11684
1349774996,5811,990.2999877929688000,47.7781295776367200,674.8098754882812000,4.1391749382019040,54.0392112731933600,52,99,87,79,83,15133,2147758875,2147424374,2148010934,2147875026,2147643017,2147065234,2148262893,2147195410,24,5,13,40019
1349778596,5810,995.1599731445312000,47.9639091491699200,673.8980712890625000,4.1693420410156250,54.0045394897460940,52,99,88,80,81,15132,2147758381,2147423168,2148009216,2147875401,2147642971,2147062418,2148261403,2147196480,330,5,13,4814
1349782196,5810,997.0100097656250000,47.6325302124023440,672.9916992187500000,4.1993198394775390,54.0374794006347660,52,101,85,80,82,15134,2147761069,2147420068,2148011520,2147871067,2147639707,2147064704,2148263323,2147198966,406,5,13,17095
1349785796,5810,989.1199951171875000,47.8408889770507800,674.7548217773438000,4.1409988403320310,54.0313301086425800,52,100,88,80,82,15132,2147759762,2147425225,2148012260,2147876717,2147644736,2147061979,2148265490,2147195465,780,5,13,51675
1349789396,5807,991.6900024414062000,48.9879302978515600,675.6279296875000000,4.1121082305908200,53.8826789855957000,52,99,90,78,82,15132,2147762660,2147421440,2148012818,2147875894,2147644845,2147064201,2148262838,2147198208,3378,4,13,497
1349792996,5809,988.5000000000000000,48.9821205139160160,676.7474975585938000,4.0750432014465330,53.8933715820312500,52,98,89,80,82,15134,2147762989,2147419574,2148010925,2147877202,2147642578,2147067218,2148261824,2147195876,31,5,13,1915
1349796596,5807,985.6900024414062000,49.6204910278320300,677.0325927734375000,4.0656027793884280,53.8099708557128900,53,99,86,79,80,15133,2147760009,2147421558,2148013595,2147876544,2147641664,2147062765,2148266212,2147198528,3522,4,13,35620
1349800196,5811,1004.9199829101562000,49.4837112426757800,675.7186279296875000,4.1091041564941410,53.8149299621582000,52,98,90,79,82,15129,2147757668,2147423158,2148008530,2147873426,2147643547,2147062400,2148260882,2147198336,141,5,13,14191
1349803796,5808,991.9799804687500000,48.4530487060546900,675.7279052734375000,4.1087970733642580,53.9580802917480500,52,98,92,79,82,15119,2147763547,2147422390,2148014875,2147873773,2147646006,2147064630,2148259328,2147198491,3209,5,13,62362
1349807396,5807,997.3099975585938000,48.3299713134765600,674.4365234375000000,4.1515312194824220,53.9582405090332000,52,101,89,80,82,15130,2147760164,2147423433,2148010688,2147872045,2147643245,2147060105,2148262326,2147195392,635,5,13,5320
1349810996,5811,997.2600097656250000,47.7201004028320300,674.3369140625000000,4.1548290252685550,54.0399894714355500,53,97,91,80,81,15127,2147759433,2147420242,2148009526,2147875529,2147646171,2147063286,2148260681,2147201088,3582,5,13,65030
1349811656,5804,997.7000122070312000,47.7358818054199200,674.3900756835938000,4.1530671119689940,54.0419502258300800,52,99,91,79,81,15192,2147760018,2147420992,2148008649,2147876690,2147642788,2147058779,2148255250,2147197220,127,5,13,54375
